User: anonymous   Login
Location: Del Oro Observatory
(38.3044°N, 104.8119°W)
Time: 15:46:05
(UTC-07:00)
Language:

Cosmos 1602 Rocket - Orbit

View from above orbital plane
View from above orbital plane
View from above satellite
View from above satellite

Ground track
Ground track

The orbit data is extracted from the following two-line orbital elements,

1 15332U 84105B   17057.78557605  .00000124  00000-0  12200-4 0  9991
2 15332  82.5341 291.2696 0021647  18.4546  27.1828 14.83291439750220
Epoch (UTC): 26 February 2017 18:51:13
Eccentricity: 0.0021647
inclination: 82.5341°
perigee height: 604 km
apogee height: 634 km
right ascension of ascending node: 291.2696°
argument of perigee: 18.4546°
revolutions per day: 14.83291439
mean anomaly at epoch: 27.1828°
orbit number at epoch: 75022

The dashed part of the orbit path shows where the satellite is in the earth's shadow,  

DLR